Weather in Byala

Bulgaria     43°27′35″N   25°44′19″E
temp.,
°C
wind,
m/s
gust,
m/s
humid.,
%
clouds,
%
prec.,
mm/h
press.,
hPa
HPBL,
m
6 march, sat
sat623:00+10wsw22500 0.0 101622
02:00+8wsw4106133 0.0 1017256
05:00+7wsw51177100 0.0 1018379
08:00+7w61075100 0.0 1020777
11:00+8wnw795689 0.0 10231066
14:00+5ene577695 0.0 1025537
17:00+4ene687881 0.0 1027488
20:00+3e587778 0.0 1029540
7 march, sun
sun723:00+2ese1277100 0.0 103176
02:00+1ne117898 0.0 103222
05:000se227327 0.0 103123
08:00+1s127313 0.0 1030137
11:00+5wsw33615 0.0 1028929
14:00+7w334812 0.0 10261284
17:00+7w33480 0.0 10231104
20:00+4sw11590 0.0 102322
8 march, mon
mon823:00+3s22600 0.0 102122
02:00+2s23650 0.0 102024
05:000ssw23720 0.0 101830
08:00+2s23650 0.0 101891
11:00+8w36400 0.0 1017847
14:00+11wnw57300 0.0 10151505
17:00+11wnw48320 0.0 10141495
20:00+6wnw22410 0.0 101622
9 march, tue
tue923:00+4sw23500 0.0 101829
02:00+2wsw23560 0.0 101834
05:00+1sse00592 0.0 101922
08:00+2e356114 0.0 1020191
11:00+7sse224474 0.0 1021884
14:00+10s113561 0.0 10191352
17:00+10s113362 0.0 10191300
20:00+6se124580 0.0 102028
10 march, wed
wed1023:00+5ese478171 0.0 1021220
02:00+4se348185 0.0 1021112
05:00+4s228199 0.0 102023
08:00+4sw247199 0.0 1020239
11:00+7w4563100 0.0 1020694
14:00+10wnw565183 0.0 10181408
17:00+9nw465333 0.0 10181424
20:00+6n116044 0.0 102028